Location: Lombard
(41.8800°N, 88.0080°W)
Time: 12:38:57
(UTC-05:00)

A-11 Canister half - Pass Details

Date: 04 February 2023
Orbit: 1512 x 1687 km, 47.2° (Epoch: 20 March)

Event Time Altitude Azimuth Distance (km) Brightness Sun altitude
Rises 07:48:45 0° 178° (S) 4,888 12.1 7.1°
Reaches altitude 10° 07:53:31 10° 159° (SSE) 3,877 12.1 7.9°
Maximum altitude 07:59:01 17° 125° (SE) 3,346 13.4 8.8°
Drops below altitude 10° 08:04:26 10° 90° (E) 3,810 12.2 9.6°
Sets 08:09:00 0° 71° (ENE) 4,764 12.2 10.3°
